Location: Unspecified
(0.0000°N, 0.0000°E)
Time: 04:37:40
(UTC+00:00)

Courier 1B - All Passes

Search period start: 07 July 2015 00:00
Search period end: 17 July 2015 00:00
Orbit: 963 x 1209 km, 28.3° (Epoch: 06 July)

Date Brightness Start Highest point End Pass type
(mag) Time Alt. Az. Time Alt. Az. Time Alt. Az.
07 Jul - 00:13:25 10° W 00:20:15 34° NNW 00:27:08 10° NE night (unlit)
07 Jul - 02:13:05 10° NW 02:15:46 12° NNW 02:18:10 10° N visible
07 Jul - 08:00:02 10° NNW 08:05:00 20° NNE 08:09:56 10° ENE daylight
07 Jul - 09:52:42 10° NW 09:59:37 67° NNE 10:06:11 10° ESE daylight
07 Jul - 11:47:46 10° W 11:53:44 33° SSW 11:59:29 10° SE daylight
07 Jul - 19:32:39 10° SSW 19:37:02 18° SSE 19:41:48 10° ESE visible
07 Jul - 21:24:36 10° SW 21:31:43 58° SSE 21:39:16 10° ENE visible
07 Jul - 23:19:01 10° W 23:26:11 45° NNW 23:33:33 10° NE night (unlit)
08 Jul - 01:17:00 10° NW 01:21:24 15° NNW 01:25:36 10° NNE visible
08 Jul - 07:06:53 10° NNW 07:10:52 15° NNE 07:14:55 10° NE daylight
08 Jul - 08:59:00 10° NW 09:05:48 48° NNE 09:12:15 10° ESE daylight
08 Jul - 10:53:23 10° WNW 10:59:57 48° SSW 11:06:13 10° SE daylight
08 Jul - 12:51:24 10° SW 12:54:32 13° SSW 12:57:25 10° S daylight
08 Jul - 18:40:19 10° S 18:42:55 12° SSE 18:45:51 10° SE visible
08 Jul - 20:31:11 10° SW 20:37:48 42° SSE 20:44:51 10° E visible
08 Jul - 22:24:54 10° WSW 22:32:10 61° NNW 22:39:48 10° NE night (unlit)
09 Jul - 00:21:40 10° WNW 00:27:08 20° NNW 00:32:30 10° NNE night (unlit)
09 Jul - 06:14:07 10° N 06:16:36 12° NNE 06:19:17 10° NE daylight
09 Jul - 08:05:23 10° NW 08:11:54 35° NNE 08:18:07 10° E daylight
09 Jul - 09:59:12 10° WNW 10:06:11 68° SSW 10:12:47 10° SE daylight
09 Jul - 11:55:57 10° WSW 12:00:33 19° SSW 12:04:53 10° SSE daylight
09 Jul - 19:37:57 10° SSW 19:43:53 30° SSE 19:50:11 10° E visible
09 Jul - 21:31:00 10° WSW 21:38:14 82° NNW 21:45:54 10° ENE visible
09 Jul - 23:26:46 10° W 23:32:56 26° NNW 23:39:09 10° NNE night (unlit)
10 Jul - 07:11:53 10° NNW 07:17:53 27° NNE 07:23:43 10° E daylight
10 Jul - 09:05:10 10° WNW 09:12:24 87° NNE 09:19:12 10° ESE daylight
10 Jul - 11:00:59 10° W 11:06:38 26° SSW 11:11:59 10° SSE daylight
10 Jul - 18:44:57 10° SSW 18:49:55 22° SSE 18:55:14 10° ESE visible
10 Jul - 20:37:20 10° SW 20:44:21 74° SSE 20:51:51 10° ENE visible
10 Jul - 22:32:14 10° W 22:38:49 35° NNW 22:45:39 10° NE night (unlit)
11 Jul - 00:31:21 10° NW 00:34:18 12° NNW 00:36:59 10° N night (unlit)
11 Jul - 06:18:31 10° NNW 06:23:46 20° NNE 06:29:01 10° ENE daylight
11 Jul - 08:11:16 10° NW 08:18:34 64° NNE 08:25:25 10° ESE daylight
11 Jul - 10:06:20 10° W 10:12:47 37° SSW 10:18:52 10° SE daylight
11 Jul - 12:06:21 10° SSW 12:07:37 10° SSW 12:08:36 10° SSW daylight
11 Jul - 17:52:17 10° S 17:55:55 15° SSE 17:59:51 10° ESE daylight
11 Jul - 19:43:50 10° SW 19:50:30 53° SSE 19:57:37 10° ENE visible
11 Jul - 21:37:59 10° W 21:44:49 46° NNW 21:52:00 10° NE visible
11 Jul - 23:35:35 10° WNW 23:39:57 16° NNW 23:44:11 10° NNE night (unlit)
12 Jul - 05:25:19 10° NNW 05:29:33 16° NNE 05:33:53 10° ENE visible
12 Jul - 07:17:30 10° NW 07:24:39 47° NNE 07:31:26 10° E daylight
12 Jul - 09:11:55 10° WNW 09:18:58 52° SSW 09:25:34 10° SE daylight
12 Jul - 11:09:42 10° WSW 11:13:32 15° SSW 11:17:04 10° S daylight
12 Jul - 17:00:35 10° S 17:01:50 11° SSE 17:03:22 10° SE daylight
12 Jul - 18:50:31 10° SW 18:56:40 38° SSE 19:03:11 10° E visible
12 Jul - 20:44:00 10° WSW 20:50:54 63° NNW 20:58:14 10° NE visible
12 Jul - 22:40:26 10° WNW 22:45:43 20° NNW 22:51:00 10° NNE night (unlit)
13 Jul - 04:32:31 10° N 04:35:13 12° NNE 04:38:09 10° NE visible
13 Jul - 06:23:52 10° NW 06:30:39 35° NNE 06:37:12 10° E daylight
13 Jul - 08:17:41 10° WNW 08:25:07 73° SSW 08:32:05 10° SE daylight
13 Jul - 10:14:19 10° WSW 10:19:32 21° SSW 10:24:24 10° SSE daylight
13 Jul - 17:57:24 10° SSW 18:02:48 27° SSE 18:08:32 10° E daylight
13 Jul - 19:50:13 10° WSW 19:57:03 86° NNW 20:04:21 10° ENE visible
13 Jul - 21:45:42 10° W 21:51:35 27° NNW 21:57:38 10° NNE visible
14 Jul - 05:30:22 10° NNW 05:36:34 26° NNE 05:42:42 10° E visible
14 Jul - 07:23:37 10° WNW 07:31:15 82° NNE 07:38:25 10° ESE daylight
14 Jul - 09:19:21 10° W 09:25:35 30° SSW 09:31:25 10° SSE daylight
14 Jul - 17:04:28 10° SSW 17:08:53 19° SSE 17:13:34 10° ESE daylight
14 Jul - 18:56:37 10° SW 19:03:15 69° SSE 19:10:18 10° ENE visible
14 Jul - 20:51:18 10° W 20:57:34 35° NNW 21:04:07 10° NE visible
14 Jul - 22:50:09 10° NW 22:52:53 12° NNW 22:55:25 10° N night (unlit)
15 Jul - 04:37:00 10° NNW 04:42:23 20° NNE 04:47:50 10° ENE visible
15 Jul - 06:29:43 10° NW 06:37:19 61° NNE 06:44:33 10° ESE daylight
15 Jul - 08:24:42 10° W 08:31:40 41° SSW 08:38:13 10° SE daylight
15 Jul - 10:23:47 10° SW 10:26:32 12° SSW 10:28:59 10° S daylight
15 Jul - 16:11:56 10° S 16:14:54 14° SSE 16:18:07 10° SE daylight
15 Jul - 18:03:11 10° SW 18:09:29 48° SSE 18:16:06 10° ENE daylight
15 Jul - 19:57:09 10° WSW 20:03:39 48° NNW 20:10:30 10° NE visible
15 Jul - 21:54:30 10° NW 21:58:37 15° NNW 22:02:38 10° NNE visible
16 Jul - 03:43:53 10° NNW 03:48:06 16° NNE 03:52:32 10° NE visible
16 Jul - 05:35:58 10° NW 05:43:19 45° NNE 05:50:26 10° E visible
16 Jul - 07:30:16 10° WNW 07:37:46 57° SSW 07:44:49 10° SE daylight
16 Jul - 09:27:47 10° WSW 09:32:26 17° SSW 09:36:43 10° SSE daylight
16 Jul - 17:09:55 10° SW 17:15:41 34° SSE 17:21:43 10° E daylight
16 Jul - 19:03:14 10° WSW 19:09:49 66° NNW 19:16:47 10° NE visible
16 Jul - 20:59:29 10° WNW 21:04:28 20° NNW 21:09:29 10° NNE visible
